Time,TemperatureF,DewpointF,PressureIn,WindDirection,WindDirectionDegrees,WindSpeedMPH,WindSpeedGustMPH,Humidity,HourlyPrecipIn,Conditions,Clouds,dailyrainin,SoftwareType,DateUTC
2013-04-15 00:07:00,36.3,35.8,29.44,East,90,0.0,0.0,98,0.00,,,-99.99,Weather View 32 v70,2013-04-15 05:07:00,
2013-04-15 00:12:00,36.3,35.8,29.44,East,90,0.0,0.0,98,0.00,,,-99.99,Weather View 32 v70,2013-04-15 05:12:00,
2013-04-15 00:17:00,36.3,35.8,29.41,East,89,0.0,0.0,98,0.00,,,-99.99,Weather View 32 v70,2013-04-15 05:17:00,
2013-04-15 00:27:00,36.3,35.8,29.41,East,90,0.0,0.0,98,0.00,,,-99.99,Weather View 32 v70,2013-04-15 05:27:00,
2013-04-15 00:32:00,36.3,35.8,29.41,East,90,0.0,0.0,98,0.00,,,-99.99,Weather View 32 v70,2013-04-15 05:32:00,
2013-04-15 00:37:00,36.1,35.6,29.41,East,90,0.0,0.0,98,0.00,,,-99.99,Weather View 32 v70,2013-04-15 05:37:00,
2013-04-15 00:42:00,36.1,35.6,29.41,East,90,0.0,0.0,98,0.00,,,-99.99,Weather View 32 v70,2013-04-15 05:42:00,
2013-04-15 00:47:00,36.1,35.6,29.41,East,90,0.0,0.0,98,0.00,,,-99.99,Weather View 32 v70,2013-04-15 05:47:00,
2013-04-15 00:52:00,36.1,35.6,29.41,East,90,0.0,0.0,98,0.00,,,-99.99,Weather View 32 v70,2013-04-15 05:52:00,
2013-04-15 01:00:00,36.1,35.6,29.41,East,90,0.0,0.0,98,0.00,,,-99.99,Weather View 32 v70,2013-04-15 06:00:00,
2013-04-15 01:07:00,36.1,35.6,29.41,East,90,0.0,0.0,98,0.00,,,-99.99,Weather View 32 v70,2013-04-15 06:07:00,
2013-04-15 01:12:00,36.1,35.6,29.41,East,90,0.0,0.0,98,0.00,,,-99.99,Weather View 32 v70,2013-04-15 06:12:00,
2013-04-15 01:22:00,36.1,35.6,29.41,East,90,0.0,0.0,98,0.00,,,-99.99,Weather View 32 v70,2013-04-15 06:22:00,
2013-04-15 01:27:00,36.1,35.6,29.38,East,90,0.0,0.0,98,0.00,,,-99.99,Weather View 32 v70,2013-04-15 06:27:00,
2013-04-15 01:37:00,36.1,35.6,29.38,East,90,0.0,0.0,98,0.00,,,-99.99,Weather View 32 v70,2013-04-15 06:37:00,
2013-04-15 01:42:00,36.1,35.6,29.38,East,90,0.0,0.0,98,0.00,,,-99.99,Weather View 32 v70,2013-04-15 06:42:00,
2013-04-15 01:52:00,36.1,35.6,29.38,East,90,0.0,0.0,98,0.00,,,-99.99,Weather View 32 v70,2013-04-15 06:52:00,
2013-04-15 01:57:00,36.1,35.6,29.38,East,90,0.0,0.0,98,0.00,,,-99.99,Weather View 32 v70,2013-04-15 06:57:00,
2013-04-15 02:42:00,36.0,35.5,29.35,East,90,0.0,0.0,98,0.00,,,-99.99,Weather View 32 v70,2013-04-15 07:42:00,
2013-04-15 02:52:00,36.0,35.5,29.35,East,90,0.0,0.0,98,0.00,,,-99.99,Weather View 32 v70,2013-04-15 07:52:00,
2013-04-15 03:02:00,36.0,35.5,29.35,East,90,0.0,0.0,98,0.00,,,-99.99,Weather View 32 v70,2013-04-15 08:02:00,
2013-04-15 03:07:00,36.0,35.5,29.35,East,90,0.0,0.0,98,0.00,,,-99.99,Weather View 32 v70,2013-04-15 08:07:00,
2013-04-15 03:22:00,36.0,35.5,29.35,East,90,0.0,0.0,98,0.00,,,-99.99,Weather View 32 v70,2013-04-15 08:22:00,
2013-04-15 03:27:00,36.0,35.5,29.35,East,90,0.0,0.0,98,0.00,,,-99.99,Weather View 32 v70,2013-04-15 08:27:00,
2013-04-15 03:37:00,36.1,35.6,29.35,East,90,0.0,0.0,98,0.00,,,-99.99,Weather View 32 v70,2013-04-15 08:37:00,
2013-04-15 03:42:00,36.1,35.6,29.35,East,90,0.0,0.0,98,0.00,,,-99.99,Weather View 32 v70,2013-04-15 08:42:00,
2013-04-15 03:47:00,36.1,35.6,29.35,East,90,0.0,0.0,98,0.00,,,-99.99,Weather View 32 v70,2013-04-15 08:47:00,
2013-04-15 03:52:00,36.1,35.6,29.35,East,90,0.0,0.0,98,0.00,,,-99.99,Weather View 32 v70,2013-04-15 08:52:00,
2013-04-15 04:02:00,36.1,35.6,29.35,East,90,0.0,0.0,98,0.00,,,-99.99,Weather View 32 v70,2013-04-15 09:02:00,
2013-04-15 04:12:00,36.1,35.6,29.35,East,90,0.0,0.0,98,0.00,,,-99.99,Weather View 32 v70,2013-04-15 09:12:00,
2013-04-15 04:17:00,36.1,35.6,29.35,East,90,0.0,0.0,98,0.00,,,-99.99,Weather View 32 v70,2013-04-15 09:17:00,
2013-04-15 04:22:00,36.1,35.6,29.35,East,90,0.0,0.0,98,0.00,,,-99.99,Weather View 32 v70,2013-04-15 09:22:00,
2013-04-15 04:27:00,36.1,35.6,29.35,East,90,0.0,0.0,98,0.00,,,-99.99,Weather View 32 v70,2013-04-15 09:27:00,
2013-04-15 04:32:00,36.1,35.6,29.35,East,90,0.0,0.0,98,0.00,,,-99.99,Weather View 32 v70,2013-04-15 09:32:00,
2013-04-15 04:37:00,36.1,35.6,29.35,East,90,0.0,0.0,98,0.00,,,-99.99,Weather View 32 v70,2013-04-15 09:37:00,
2013-04-15 04:42:00,36.1,35.6,29.35,East,90,0.0,0.0,98,0.00,,,-99.99,Weather View 32 v70,2013-04-15 09:42:00,
2013-04-15 04:52:00,36.1,35.6,29.35,East,90,0.0,0.0,98,0.00,,,-99.99,Weather View 32 v70,2013-04-15 09:52:00,
2013-04-15 04:57:00,36.1,35.6,29.35,East,90,0.0,0.0,98,0.00,,,-99.99,Weather View 32 v70,2013-04-15 09:57:00,
2013-04-15 05:02:00,36.1,35.6,29.35,East,90,0.0,0.0,98,0.00,,,-99.99,Weather View 32 v70,2013-04-15 10:02:00,
2013-04-15 05:12:00,36.1,35.6,29.35,East,90,0.0,0.0,98,0.00,,,-99.99,Weather View 32 v70,2013-04-15 10:12:00,
2013-04-15 05:17:00,36.1,35.6,29.35,East,90,0.0,0.0,98,0.00,,,-99.99,Weather View 32 v70,2013-04-15 10:17:00,
2013-04-15 05:22:00,36.1,35.6,29.35,East,90,0.0,0.0,98,0.00,,,-99.99,Weather View 32 v70,2013-04-15 10:22:00,
2013-04-15 05:27:00,36.1,35.6,29.35,East,90,0.0,0.0,98,0.00,,,-99.99,Weather View 32 v70,2013-04-15 10:27:00,
2013-04-15 05:32:00,36.1,35.6,29.35,East,90,0.0,0.0,98,0.00,,,-99.99,Weather View 32 v70,2013-04-15 10:32:00,
2013-04-15 05:37:00,36.1,35.6,29.35,East,90,0.0,0.0,98,0.00,,,-99.99,Weather View 32 v70,2013-04-15 10:37:00,
2013-04-15 05:42:00,36.1,35.6,29.35,East,90,0.0,0.0,98,0.00,,,-99.99,Weather View 32 v70,2013-04-15 10:42:00,
2013-04-15 05:52:00,36.1,35.6,29.38,East,90,0.0,0.0,98,0.00,,,-99.99,Weather View 32 v70,2013-04-15 10:52:00,
2013-04-15 05:57:00,36.1,35.6,29.38,East,90,0.0,0.0,98,0.00,,,-99.99,Weather View 32 v70,2013-04-15 10:57:00,
2013-04-15 06:02:00,36.1,35.6,29.38,East,90,0.0,0.0,98,0.00,,,-99.99,Weather View 32 v70,2013-04-15 11:02:00,
2013-04-15 06:12:00,36.1,35.6,29.38,East,90,0.0,0.0,98,0.00,,,-99.99,Weather View 32 v70,2013-04-15 11:12:00,
2013-04-15 06:17:00,36.0,35.5,29.38,East,90,0.0,0.0,98,0.00,,,-99.99,Weather View 32 v70,2013-04-15 11:17:00,
2013-04-15 06:22:00,36.0,35.5,29.38,East,90,0.0,0.0,98,0.00,,,-99.99,Weather View 32 v70,2013-04-15 11:22:00,
2013-04-15 06:32:00,36.0,35.5,29.38,East,90,0.0,0.0,98,0.00,,,-99.99,Weather View 32 v70,2013-04-15 11:32:00,
2013-04-15 06:37:00,36.0,35.5,29.38,East,90,0.0,0.0,98,0.00,,,-99.99,Weather View 32 v70,2013-04-15 11:37:00,
2013-04-15 06:42:00,36.0,35.5,29.38,East,90,0.0,0.0,98,0.00,,,-99.99,Weather View 32 v70,2013-04-15 11:42:00,
2013-04-15 06:52:00,36.0,35.5,29.38,East,90,0.0,0.0,98,0.00,,,-99.99,Weather View 32 v70,2013-04-15 11:52:00,
2013-04-15 06:57:00,36.0,35.5,29.38,East,90,0.0,0.0,98,0.00,,,-99.99,Weather View 32 v70,2013-04-15 11:57:00,
2013-04-15 07:05:00,36.0,35.5,29.38,East,90,0.0,0.0,98,0.00,,,-99.99,Weather View 32 v70,2013-04-15 12:05:00,
2013-04-15 07:12:00,36.0,35.5,29.38,East,89,0.0,0.0,98,0.00,,,-99.99,Weather View 32 v70,2013-04-15 12:12:00,
2013-04-15 07:22:00,36.0,35.5,29.41,East,91,0.0,0.0,98,0.00,,,-99.99,Weather View 32 v70,2013-04-15 12:22:00,
2013-04-15 07:27:00,36.0,35.5,29.41,East,90,0.0,0.0,98,0.00,,,-99.99,Weather View 32 v70,2013-04-15 12:27:00,
2013-04-15 07:32:00,36.0,35.5,29.41,East,90,0.0,0.0,98,0.00,,,-99.99,Weather View 32 v70,2013-04-15 12:32:00,
2013-04-15 07:42:00,36.0,35.5,29.41,East,90,0.0,0.0,98,0.00,,,-99.99,Weather View 32 v70,2013-04-15 12:42:00,
2013-04-15 07:47:00,36.0,35.5,29.41,East,90,0.0,0.0,98,0.00,,,-99.99,Weather View 32 v70,2013-04-15 12:47:00,
2013-04-15 07:57:00,36.1,35.6,29.41,East,90,0.0,0.0,98,0.00,,,-99.99,Weather View 32 v70,2013-04-15 12:57:00,
2013-04-15 08:02:00,36.1,35.6,29.41,East,89,0.0,0.0,98,0.00,,,-99.99,Weather View 32 v70,2013-04-15 13:02:00,
2013-04-15 08:07:00,36.1,35.6,29.41,East,90,0.0,0.0,98,0.00,,,-99.99,Weather View 32 v70,2013-04-15 13:07:00,
2013-04-15 08:17:00,36.3,35.8,29.44,East,89,0.0,0.0,98,0.00,,,-99.99,Weather View 32 v70,2013-04-15 13:17:00,
2013-04-15 08:22:00,36.3,35.8,29.44,East,89,0.0,0.0,98,0.00,,,-99.99,Weather View 32 v70,2013-04-15 13:22:00,
2013-04-15 08:32:00,36.5,36.0,29.44,East,90,0.0,0.0,98,0.00,,,-99.99,Weather View 32 v70,2013-04-15 13:32:00,
2013-04-15 08:37:00,36.5,36.0,29.44,East,90,0.0,0.0,98,0.00,,,-99.99,Weather View 32 v70,2013-04-15 13:37:00,
2013-04-15 08:42:00,36.5,36.0,29.44,East,89,0.0,0.0,98,0.00,,,-99.99,Weather View 32 v70,2013-04-15 13:42:00,
2013-04-15 08:52:00,36.7,36.2,29.44,East,84,0.0,0.0,98,0.00,,,-99.99,Weather View 32 v70,2013-04-15 13:52:00,
2013-04-15 08:57:00,36.7,36.2,29.44,East,84,0.0,0.0,98,0.00,,,-99.99,Weather View 32 v70,2013-04-15 13:57:00,
2013-04-15 09:02:00,36.7,36.2,29.44,East,82,0.0,0.0,98,0.00,,,-99.99,Weather View 32 v70,2013-04-15 14:02:00,
2013-04-15 09:07:00,36.9,36.3,29.44,East,79,0.0,0.0,98,0.00,,,-99.99,Weather View 32 v70,2013-04-15 14:07:00,
2013-04-15 09:22:00,36.9,36.3,29.44,ENE,71,0.0,0.0,98,0.00,,,-99.99,Weather View 32 v70,2013-04-15 14:22:00,
2013-04-15 09:27:00,37.0,36.5,29.47,ENE,69,0.0,0.0,98,0.00,,,-99.99,Weather View 32 v70,2013-04-15 14:27:00,
2013-04-15 09:37:00,37.0,36.5,29.47,NE,53,0.0,0.0,98,0.00,,,-99.99,Weather View 32 v70,2013-04-15 14:37:00,
2013-04-15 09:42:00,37.0,36.5,29.47,NE,51,0.0,0.0,98,0.00,,,-99.99,Weather View 32 v70,2013-04-15 14:42:00,
2013-04-15 09:47:00,37.2,36.7,29.47,NE,50,0.0,0.0,98,0.00,,,-99.99,Weather View 32 v70,2013-04-15 14:47:00,
2013-04-15 09:57:00,37.2,36.7,29.47,NE,44,0.0,0.0,98,0.00,,,-99.99,Weather View 32 v70,2013-04-15 14:57:00,
2013-04-15 10:02:00,37.4,36.9,29.47,NE,35,0.0,0.0,98,0.00,,,-99.99,Weather View 32 v70,2013-04-15 15:02:00,
2013-04-15 10:12:00,37.4,36.9,29.50,NW,311,5.0,5.0,98,0.00,,,-99.99,Weather View 32 v70,2013-04-15 15:12:00,
2013-04-15 10:17:00,37.4,36.9,29.50,NNW,330,0.0,6.0,98,0.00,,,-99.99,Weather View 32 v70,2013-04-15 15:17:00,
2013-04-15 10:22:00,37.4,36.9,29.50,North,357,3.0,6.0,98,0.00,,,-99.99,Weather View 32 v70,2013-04-15 15:22:00,
2013-04-15 10:32:00,37.4,36.9,29.50,NNW,332,4.0,8.0,98,0.00,,,-99.99,Weather View 32 v70,2013-04-15 15:32:00,
2013-04-15 10:42:00,37.6,37.1,29.50,NW,311,3.0,8.0,98,0.00,,,-99.99,Weather View 32 v70,2013-04-15 15:42:00,
2013-04-15 10:47:00,37.6,37.1,29.50,NNW,327,5.0,8.0,98,0.00,,,-99.99,Weather View 32 v70,2013-04-15 15:47:00,
2013-04-15 10:57:00,37.8,37.2,29.50,SW,230,3.0,8.0,98,0.00,,,-99.99,Weather View 32 v70,2013-04-15 15:57:00,
2013-04-15 11:02:00,37.9,37.4,29.50,WSW,258,5.0,8.0,98,0.00,,,-99.99,Weather View 32 v70,2013-04-15 16:02:00,
2013-04-15 11:07:00,37.9,37.4,29.50,West,260,5.0,10.0,98,0.00,,,-99.99,Weather View 32 v70,2013-04-15 16:07:00,
2013-04-15 11:17:00,37.9,37.4,29.53,WSW,251,8.0,11.0,98,0.00,,,-99.99,Weather View 32 v70,2013-04-15 16:17:00,
2013-04-15 11:22:00,37.9,37.4,29.53,NNW,339,8.0,11.0,98,0.00,,,-99.99,Weather View 32 v70,2013-04-15 16:22:00,
2013-04-15 11:27:00,37.9,37.4,29.53,WNW,285,8.0,11.0,98,0.00,,,-99.99,Weather View 32 v70,2013-04-15 16:27:00,
2013-04-15 11:37:00,37.8,37.2,29.53,West,274,6.0,12.0,98,0.00,,,-99.99,Weather View 32 v70,2013-04-15 16:37:00,
2013-04-15 11:42:00,37.9,37.4,29.56,NW,317,8.0,12.0,98,0.00,,,-99.99,Weather View 32 v70,2013-04-15 16:42:00,
2013-04-15 11:52:00,38.1,37.6,29.56,NW,308,6.0,13.0,98,0.00,,,-99.99,Weather View 32 v70,2013-04-15 16:52:00,
2013-04-15 12:07:00,38.5,38.0,29.56,WNW,299,8.0,13.0,98,0.00,,,-99.99,Weather View 32 v70,2013-04-15 17:07:00,
2013-04-15 12:17:00,38.8,38.3,29.59,WNW,289,6.0,13.0,98,0.00,,,-99.99,Weather View 32 v70,2013-04-15 17:17:00,
2013-04-15 12:22:00,38.8,38.3,29.59,North,357,8.0,13.0,98,0.00,,,-99.99,Weather View 32 v70,2013-04-15 17:22:00,
2013-04-15 12:27:00,39.0,38.5,29.59,NNW,340,6.0,13.0,98,0.00,,,-99.99,Weather View 32 v70,2013-04-15 17:27:00,
2013-04-15 12:37:00,39.0,38.5,29.59,WNW,299,8.0,13.0,98,0.00,,,-99.99,Weather View 32 v70,2013-04-15 17:37:00,
2013-04-15 12:47:00,39.2,38.7,29.59,NW,311,6.0,12.0,98,0.00,,,-99.99,Weather View 32 v70,2013-04-15 17:47:00,
2013-04-15 12:57:00,39.4,38.9,29.59,WSW,245,10.0,12.0,98,0.00,,,-99.99,Weather View 32 v70,2013-04-15 17:57:00,
2013-04-15 13:02:00,39.2,38.7,29.59,West,269,9.0,12.0,98,0.00,,,-99.99,Weather View 32 v70,2013-04-15 18:02:00,
2013-04-15 13:07:00,39.4,38.9,29.59,West,275,8.0,12.0,98,0.00,,,-99.99,Weather View 32 v70,2013-04-15 18:07:00,
2013-04-15 13:17:00,39.4,38.9,29.62,West,271,6.0,12.0,98,0.00,,,-99.99,Weather View 32 v70,2013-04-15 18:17:00,
2013-04-15 13:22:00,39.4,38.9,29.62,West,271,10.0,12.0,98,0.00,,,-99.99,Weather View 32 v70,2013-04-15 18:22:00,
2013-04-15 13:32:00,39.2,38.7,29.62,WSW,253,8.0,12.0,98,0.04,,,-99.99,Weather View 32 v70,2013-04-15 18:32:00,
2013-04-15 13:37:00,39.2,38.7,29.62,West,278,7.0,12.0,98,0.08,,,-99.99,Weather View 32 v70,2013-04-15 18:37:00,
2013-04-15 13:42:00,39.4,38.9,29.62,WSW,256,8.0,12.0,98,0.08,,,-99.99,Weather View 32 v70,2013-04-15 18:42:00,
2013-04-15 13:47:00,39.6,39.0,29.62,West,270,5.0,12.0,98,0.12,,,-99.99,Weather View 32 v70,2013-04-15 18:47:00,
2013-04-15 13:52:00,39.6,39.0,29.62,WSW,258,9.0,12.0,98,0.16,,,-99.99,Weather View 32 v70,2013-04-15 18:52:00,
2013-04-15 13:57:00,39.6,39.0,29.65,WNW,294,9.0,12.0,98,0.16,,,-99.99,Weather View 32 v70,2013-04-15 18:57:00,
2013-04-15 14:02:00,39.7,39.2,29.65,WNW,283,9.0,11.0,98,0.24,,,-99.99,Weather View 32 v70,2013-04-15 19:02:00,
2013-04-15 14:09:00,39.7,39.2,29.65,WNW,287,10.0,11.0,98,0.28,,,-99.99,Weather View 32 v70,2013-04-15 19:09:00,
2013-04-15 14:17:00,39.9,39.4,29.65,WSW,247,6.0,11.0,98,0.28,,,-99.99,Weather View 32 v70,2013-04-15 19:17:00,
2013-04-15 14:22:00,39.9,39.4,29.65,West,260,10.0,11.0,98,0.31,,,-99.99,Weather View 32 v70,2013-04-15 19:22:00,
2013-04-15 14:32:00,39.7,39.2,29.68,WNW,295,8.0,11.0,98,0.28,,,-99.99,Weather View 32 v70,2013-04-15 19:32:00,
2013-04-15 14:52:00,39.7,39.2,29.68,West,281,8.0,13.0,98,0.20,,,-99.99,Weather View 32 v70,2013-04-15 19:52:00,
2013-04-15 15:02:00,39.7,39.2,29.68,WNW,298,8.0,13.0,98,0.12,,,-99.99,Weather View 32 v70,2013-04-15 20:02:00,
2013-04-15 15:07:00,39.7,39.2,29.68,WSW,251,8.0,13.0,98,0.08,,,-99.99,Weather View 32 v70,2013-04-15 20:07:00,
2013-04-15 15:12:00,39.7,39.2,29.68,West,270,10.0,13.0,98,0.12,,,-99.99,Weather View 32 v70,2013-04-15 20:12:00,
2013-04-15 15:17:00,39.7,39.2,29.71,West,259,6.0,13.0,98,0.12,,,-99.99,Weather View 32 v70,2013-04-15 20:17:00,
2013-04-15 15:22:00,39.9,39.4,29.71,WNW,293,6.0,13.0,98,0.08,,,-99.99,Weather View 32 v70,2013-04-15 20:22:00,
2013-04-15 15:27:00,40.1,39.6,29.71,NW,313,4.0,13.0,98,0.08,,,-99.99,Weather View 32 v70,2013-04-15 20:27:00,
2013-04-15 15:32:00,40.3,39.8,29.71,West,268,6.0,13.0,98,0.08,,,-99.99,Weather View 32 v70,2013-04-15 20:32:00,
2013-04-15 15:42:00,39.9,39.4,29.71,WSW,245,8.0,13.0,98,0.04,,,-99.99,Weather View 32 v70,2013-04-15 20:42:00,
2013-04-15 15:47:00,39.9,39.4,29.71,West,261,10.0,12.0,98,0.04,,,-99.99,Weather View 32 v70,2013-04-15 20:47:00,
2013-04-15 15:52:00,40.1,39.6,29.71,West,271,8.0,12.0,98,0.04,,,-99.99,Weather View 32 v70,2013-04-15 20:52:00,
2013-04-15 16:02:00,40.1,39.6,29.71,West,279,6.0,12.0,98,0.04,,,-99.99,Weather View 32 v70,2013-04-15 21:02:00,
2013-04-15 16:11:00,39.9,39.4,29.71,West,275,8.0,13.0,98,0.04,,,-99.99,Weather View 32 v70,2013-04-15 21:11:00,
2013-04-15 16:17:00,39.9,39.4,29.71,West,263,6.0,13.0,98,0.00,,,-99.99,Weather View 32 v70,2013-04-15 21:17:00,
2013-04-15 16:22:00,39.9,39.4,29.71,West,259,11.0,13.0,98,0.00,,,-99.99,Weather View 32 v70,2013-04-15 21:22:00,
2013-04-15 16:27:00,39.9,39.4,29.71,WSW,237,9.0,13.0,98,0.00,,,-99.99,Weather View 32 v70,2013-04-15 21:27:00,
2013-04-15 16:37:00,40.1,39.6,29.71,WSW,249,6.0,15.0,98,0.00,,,-99.99,Weather View 32 v70,2013-04-15 21:37:00,
2013-04-15 16:42:00,40.3,39.8,29.74,West,268,7.0,15.0,98,0.00,,,-99.99,Weather View 32 v70,2013-04-15 21:42:00,
2013-04-15 16:47:00,40.3,39.8,29.74,WSW,245,9.0,15.0,98,0.00,,,-99.99,Weather View 32 v70,2013-04-15 21:47:00,
2013-04-15 16:57:00,39.6,39.0,29.74,NNW,331,7.0,15.0,98,0.00,,,-99.99,Weather View 32 v70,2013-04-15 21:57:00,
2013-04-15 17:02:00,39.2,38.7,29.74,West,269,11.0,15.0,98,0.00,,,-99.99,Weather View 32 v70,2013-04-15 22:02:00,
2013-04-15 17:12:00,39.0,38.5,29.74,WSW,243,8.0,15.0,98,0.00,,,-99.99,Weather View 32 v70,2013-04-15 22:12:00,
2013-04-15 17:22:00,38.8,38.3,29.74,WSW,246,8.0,15.0,98,0.00,,,-99.99,Weather View 32 v70,2013-04-15 22:22:00,
2013-04-15 17:27:00,38.8,38.3,29.77,West,264,11.0,15.0,98,0.00,,,-99.99,Weather View 32 v70,2013-04-15 22:27:00,
2013-04-15 17:32:00,38.8,38.3,29.77,West,260,6.0,12.0,98,0.00,,,-99.99,Weather View 32 v70,2013-04-15 22:32:00,
2013-04-15 17:42:00,38.8,38.3,29.77,NW,324,5.0,12.0,98,0.00,,,-99.99,Weather View 32 v70,2013-04-15 22:42:00,
2013-04-15 17:52:00,38.8,38.3,29.77,NW,305,8.0,12.0,98,0.00,,,-99.99,Weather View 32 v70,2013-04-15 22:52:00,
2013-04-15 17:57:00,38.8,38.3,29.77,West,269,8.0,12.0,98,0.00,,,-99.99,Weather View 32 v70,2013-04-15 22:57:00,
2013-04-15 18:02:00,38.8,38.3,29.77,NW,313,10.0,11.0,98,0.00,,,-99.99,Weather View 32 v70,2013-04-15 23:02:00,
2013-04-15 18:12:00,38.8,38.3,29.77,West,272,5.0,11.0,98,0.00,,,-99.99,Weather View 32 v70,2013-04-15 23:12:00,
2013-04-15 18:17:00,38.8,38.3,29.77,West,275,6.0,11.0,98,0.00,,,-99.99,Weather View 32 v70,2013-04-15 23:17:00,
2013-04-15 18:27:00,39.0,38.5,29.80,NNW,342,6.0,11.0,98,0.00,,,-99.99,Weather View 32 v70,2013-04-15 23:27:00,
2013-04-15 18:37:00,38.8,38.3,29.80,WNW,297,6.0,10.0,98,0.00,,,-99.99,Weather View 32 v70,2013-04-15 23:37:00,
2013-04-15 18:47:00,38.7,38.1,29.83,WSW,253,6.0,10.0,98,0.00,,,-99.99,Weather View 32 v70,2013-04-15 23:47:00,
2013-04-15 18:57:00,38.5,38.0,29.83,WNW,297,5.0,10.0,98,0.00,,,-99.99,Weather View 32 v70,2013-04-15 23:57:00,
2013-04-15 19:07:00,38.5,38.0,29.83,WNW,287,6.0,10.0,98,0.00,,,-99.99,Weather View 32 v70,2013-04-16 00:07:00,
2013-04-15 19:13:00,38.5,38.0,29.83,West,277,8.0,10.0,98,0.00,,,-99.99,Weather View 32 v70,2013-04-16 00:13:00,
2013-04-15 19:22:00,38.5,38.0,29.83,WSW,251,6.0,10.0,98,0.00,,,-99.99,Weather View 32 v70,2013-04-16 00:22:00,
2013-04-15 19:27:00,38.3,37.8,29.86,WSW,246,5.0,10.0,98,0.00,,,-99.99,Weather View 32 v70,2013-04-16 00:27:00,
2013-04-15 19:37:00,37.8,37.2,29.86,West,266,4.0,10.0,98,0.00,,,-99.99,Weather View 32 v70,2013-04-16 00:37:00,
2013-04-15 19:42:00,37.8,37.2,29.86,WSW,241,6.0,10.0,98,0.00,,,-99.99,Weather View 32 v70,2013-04-16 00:42:00,
2013-04-15 19:52:00,37.8,37.2,29.86,West,271,8.0,10.0,98,0.00,,,-99.99,Weather View 32 v70,2013-04-16 00:52:00,
2013-04-15 20:02:00,37.6,37.1,29.86,North,353,4.0,10.0,98,0.00,,,-99.99,Weather View 32 v70,2013-04-16 01:02:00,
2013-04-15 20:12:00,37.2,36.7,29.86,North,353,4.0,10.0,98,0.00,,,-99.99,Weather View 32 v70,2013-04-16 01:12:00,
2013-04-15 20:22:00,37.0,36.5,29.86,WNW,291,5.0,10.0,98,0.00,,,-99.99,Weather View 32 v70,2013-04-16 01:22:00,
2013-04-15 20:32:00,37.0,36.5,29.89,West,268,5.0,10.0,98,0.00,,,-99.99,Weather View 32 v70,2013-04-16 01:32:00,
2013-04-15 20:42:00,36.9,36.3,29.89,WSW,256,6.0,10.0,98,0.00,,,-99.99,Weather View 32 v70,2013-04-16 01:42:00,
2013-04-15 20:52:00,36.7,36.2,29.89,West,279,6.0,10.0,98,0.00,,,-99.99,Weather View 32 v70,2013-04-16 01:52:00,
2013-04-15 21:02:00,36.5,36.0,29.89,WNW,300,5.0,10.0,98,0.00,,,-99.99,Weather View 32 v70,2013-04-16 02:02:00,
2013-04-15 21:07:00,36.5,36.0,29.89,West,260,6.0,10.0,98,0.00,,,-99.99,Weather View 32 v70,2013-04-16 02:07:00,
2013-04-15 21:14:00,36.5,36.0,29.92,West,273,6.0,10.0,98,0.00,,,-99.99,Weather View 32 v70,2013-04-16 02:14:00,
2013-04-15 21:22:00,36.5,36.0,29.92,NW,320,5.0,10.0,98,0.00,,,-99.99,Weather View 32 v70,2013-04-16 02:22:00,
2013-04-15 21:32:00,36.7,36.2,29.92,NNE,14,5.0,10.0,98,0.00,,,-99.99,Weather View 32 v70,2013-04-16 02:32:00,
2013-04-15 21:42:00,36.5,36.0,29.92,West,267,6.0,10.0,98,0.00,,,-99.99,Weather View 32 v70,2013-04-16 02:42:00,
2013-04-15 21:47:00,36.5,36.0,29.92,West,260,6.0,9.0,98,0.00,,,-99.99,Weather View 32 v70,2013-04-16 02:47:00,
2013-04-15 21:57:00,36.5,36.0,29.92,West,265,5.0,9.0,98,0.00,,,-99.99,Weather View 32 v70,2013-04-16 02:57:00,
2013-04-15 22:02:00,36.5,36.0,29.92,WSW,247,5.0,10.0,98,0.00,,,-99.99,Weather View 32 v70,2013-04-16 03:02:00,
2013-04-15 22:12:00,36.7,36.2,29.92,West,261,5.0,10.0,98,0.00,,,-99.99,Weather View 32 v70,2013-04-16 03:12:00,
2013-04-15 22:17:00,36.5,36.0,29.92,SW,236,5.0,10.0,98,0.00,,,-99.99,Weather View 32 v70,2013-04-16 03:17:00,
2013-04-15 22:22:00,36.5,36.0,29.92,West,275,6.0,10.0,98,0.00,,,-99.99,Weather View 32 v70,2013-04-16 03:22:00,
2013-04-15 22:32:00,36.3,35.8,29.94,WSW,250,6.0,10.0,98,0.00,,,-99.99,Weather View 32 v70,2013-04-16 03:32:00,
2013-04-15 22:42:00,36.3,35.8,29.94,WSW,249,4.0,11.0,98,0.00,,,-99.99,Weather View 32 v70,2013-04-16 03:42:00,
2013-04-15 22:52:00,36.5,36.0,29.94,West,264,8.0,11.0,98,0.00,,,-99.99,Weather View 32 v70,2013-04-16 03:52:00,
2013-04-15 22:57:00,36.5,36.0,29.94,West,272,6.0,11.0,98,0.00,,,-99.99,Weather View 32 v70,2013-04-16 03:57:00,
2013-04-15 23:02:00,36.5,36.0,29.94,West,266,6.0,11.0,98,0.00,,,-99.99,Weather View 32 v70,2013-04-16 04:02:00,
2013-04-15 23:07:00,36.5,36.0,29.94,West,279,5.0,11.0,98,0.00,,,-99.99,Weather View 32 v70,2013-04-16 04:07:00,
2013-04-15 23:12:00,36.5,36.0,29.94,West,274,6.0,11.0,98,0.00,,,-99.99,Weather View 32 v70,2013-04-16 04:12:00,
2013-04-15 23:17:00,36.5,36.0,29.94,WNW,289,5.0,11.0,98,0.00,,,-99.99,Weather View 32 v70,2013-04-16 04:17:00,
2013-04-15 23:22:00,36.5,36.0,29.94,WSW,252,9.0,11.0,98,0.00,,,-99.99,Weather View 32 v70,2013-04-16 04:22:00,
2013-04-15 23:32:00,36.5,36.0,29.94,WNW,290,8.0,11.0,98,0.00,,,-99.99,Weather View 32 v70,2013-04-16 04:32:00,
2013-04-15 23:37:00,36.3,35.8,29.94,West,268,6.0,11.0,98,0.00,,,-99.99,Weather View 32 v70,2013-04-16 04:37:00,
2013-04-15 23:47:00,36.3,35.8,29.97,West,260,8.0,11.0,98,0.00,,,-99.99,Weather View 32 v70,2013-04-16 04:47:00,
2013-04-15 23:57:00,36.1,35.6,29.97,West,265,11.0,12.0,98,0.00,,,-99.99,Weather View 32 v70,2013-04-16 04:57:00,